Springfield, VT

5:29 PM EDT on June 23, 2017 (GMT -0400)
Hartness State

Weather History for KVSF - August, 2013

Change the Weather History Date:

Tuesday, August 13, 2013

  Actual Average Record
Temperature  
Mean Temperature 63 °F 68 °F  
Max Temperature 69 °F 80 °F 89 °F (2005)
Min Temperature 56 °F 56 °F 42 °F (2006)
Degree Days  
Heating Degree Days 2 1  
Month to date heating degree days 13  
Since 1 June heating degree days 126  
Since 1 July heating degree days 30  
Cooling Degree Days 0 4  
Month to date cooling degree days 26 52  
Year to date cooling degree days 392 267  
Since 1 June cooling degree days 368 255  
Growing Degree Days 13 (Base 50)    
Moisture  
Dew Point 62 °F    
Average Humidity 92    
Maximum Humidity 100    
Minimum Humidity 84    
Precipitation  
Precipitation 0.96 in 0.10 in 1.88 in (2014)
Month to date precipitation 1.47 1.64  
Year to date precipitation 24.68 26.23  
Sea Level Pressure  
Sea Level Pressure 29.78 in    
Wind  
Wind Speed 0 mph (SSW)    
Max Wind Speed 6 mph    
Max Gust Speed 8 mph    
Visibility 7 miles    
Events Rain    
T = Trace of Precipitation, MM = Missing Value Source: NWS Daily Summary

Daily Weather History Graph

Daily Weather History Graph

Search for Another Location

Airport or City:

Trip Planner

Search our weather history database for the weather conditions in past years. The results will help you decide how hot, cold, wet, or windy it might be!

Date:

Astronomy

Aug. 13, 2013 Rise Set
Actual Time 5:53 AM EDT 7:55 PM EDT
Civil Twilight 5:22 AM EDT 8:26 PM EDT
Nautical Twilight 4:44 AM EDT 9:04 PM EDT
Astronomical Twilight 4:02 AM EDT 9:46 PM EDT
Moon 12:58 PM EDT (8/13) 11:14 PM EDT (8/13)
Length of Visible Light 15h 04m
Length of Day
14h 02m
Waxing Crescent, 41% of the Moon is Illuminated
Aug 13
Waxing Crescent
Aug 14
First Quarter
Aug 20
Full
Aug 28
Last Quarter
Sep 5
New

Hourly Weather History & Observations

Time (EDT) Temp. Dew Point Humidity Pressure Visibility Wind Dir Wind Speed Gust Speed Precip Events Conditions
1:54 AM 59.0 °F 57.0 °F 93% 29.91 in 10.0 mi Calm Calm - N/A   Overcast
2:54 AM 57.0 °F 55.9 °F 96% 29.89 in 10.0 mi Calm Calm - N/A   Partly Cloudy
3:54 AM 57.9 °F 55.9 °F 93% 29.88 in 10.0 mi Calm Calm - N/A   Mostly Cloudy
4:54 AM 57.0 °F 55.9 °F 96% 29.86 in 10.0 mi Calm Calm - N/A   Clear
5:54 AM 57.0 °F 55.0 °F 93% 29.85 in 9.0 mi Calm Calm - N/A   Clear
6:54 AM 57.9 °F 55.9 °F 93% 29.86 in 10.0 mi Calm Calm - N/A   Partly Cloudy
7:54 AM 59.0 °F 57.0 °F 93% 29.84 in 9.0 mi Calm Calm - 0.00 in Rain Light Rain
8:54 AM 59.0 °F 59.0 °F 100% 29.86 in 2.5 mi Calm Calm - 0.08 in Rain Rain
9:02 AM 60.8 °F 59.0 °F 94% 29.85 in 3.0 mi Calm Calm - 0.01 in Rain Light Rain
9:20 AM 60.8 °F 59.0 °F 94% 29.84 in 3.0 mi Calm Calm - 0.05 in Rain Rain
9:28 AM 60.8 °F 59.0 °F 94% 29.85 in 2.5 mi Calm Calm - 0.07 in Rain Rain
9:40 AM 60.8 °F 60.8 °F 100% 29.85 in 2.0 mi Calm Calm - 0.11 in Rain Rain
9:47 AM 60.8 °F 60.8 °F 100% 29.85 in 1.5 mi Calm Calm - 0.13 in Rain Rain
9:54 AM 60.1 °F 60.1 °F 100% 29.86 in 1.2 mi Calm Calm - 0.15 in Rain Rain
10:54 AM 61.0 °F 61.0 °F 100% 29.85 in 1.2 mi Calm Calm - 0.29 in Rain Heavy Rain
11:29 AM 60.8 °F 60.8 °F 100% 29.84 in 2.5 mi Calm Calm - 0.12 in Rain Rain
11:42 AM 62.6 °F 60.8 °F 94% 29.84 in 1.8 mi Calm Calm - 0.16 in Rain Rain
11:54 AM 62.1 °F 61.0 °F 96% 29.83 in 0.8 mi Calm Calm - 0.27 in Rain Heavy Rain
12:14 PM 62.6 °F 62.6 °F 100% 29.81 in 1.8 mi Calm Calm - 0.13 in Rain Light Rain
12:17 PM 62.6 °F 62.6 °F 100% 29.82 in 3.0 mi Calm Calm - 0.13 in Rain Light Rain
12:24 PM 62.6 °F 62.6 °F 100% 29.81 in 5.0 mi Calm Calm - 0.14 in Rain Light Rain
12:32 PM 62.6 °F 62.6 °F 100% 29.81 in 4.0 mi Calm Calm - 0.14 in Rain Light Rain
12:49 PM 64.4 °F 62.6 °F 94% 29.80 in 5.0 mi South 3.5 mph - 0.15 in Rain Light Rain
12:54 PM 64.0 °F 63.0 °F 96% 29.81 in 5.0 mi South 5.8 mph - 0.16 in Rain Light Rain
1:07 PM 64.4 °F 62.6 °F 94% 29.79 in 7.0 mi Calm Calm - 0.00 in Rain Light Rain
1:17 PM 66.2 °F 64.4 °F 94% 29.78 in 10.0 mi Calm Calm - 0.00 in Rain Light Rain
1:49 PM 66.2 °F 62.6 °F 88% 29.79 in 10.0 mi Calm Calm - 0.00 in   Overcast
1:54 PM 66.0 °F 63.0 °F 90% 29.79 in 10.0 mi West 3.5 mph - 0.00 in   Overcast
2:44 PM 68.0 °F 64.4 °F 88% 29.77 in 10.0 mi Calm Calm - N/A   Overcast
2:54 PM 66.9 °F 64.0 °F 90% 29.77 in 10.0 mi Calm Calm - N/A   Overcast
3:01 PM 68.0 °F 64.4 °F 88% 29.76 in 10.0 mi Calm Calm - N/A   Overcast
3:10 PM 68.0 °F 64.4 °F 88% 29.76 in 10.0 mi Calm Calm - N/A   Overcast
3:54 PM 68.0 °F 64.0 °F 87% 29.75 in 10.0 mi Calm Calm - N/A   Overcast
4:13 PM 68.0 °F 64.4 °F 88% 29.74 in 10.0 mi Calm Calm - N/A   Overcast
4:41 PM 66.2 °F 64.4 °F 94% 29.73 in 9.0 mi Calm Calm - 0.01 in Rain Light Rain
4:54 PM 68.0 °F 64.9 °F 90% 29.73 in 10.0 mi Calm Calm - 0.01 in   Overcast
5:15 PM 68.0 °F 64.4 °F 88% 29.73 in 10.0 mi Calm Calm - N/A   Overcast
5:54 PM 69.1 °F 64.9 °F 87% 29.72 in 10.0 mi Calm Calm - 0.00 in   Overcast
6:16 PM 69.8 °F 64.4 °F 83% 29.71 in 10.0 mi Calm Calm - N/A   Overcast
6:52 PM 68.0 °F 64.4 °F 88% 29.71 in 10.0 mi Calm Calm - N/A   Overcast
6:54 PM 68.0 °F 64.9 °F 90% 29.71 in 10.0 mi Calm Calm - N/A   Overcast
7:54 PM 68.0 °F 66.0 °F 93% 29.71 in 10.0 mi Calm Calm - N/A   Mostly Cloudy
8:10 PM 68.0 °F 66.2 °F 94% 29.71 in 10.0 mi Calm Calm - N/A   Overcast
8:18 PM 66.2 °F 66.2 °F 100% 29.71 in 9.0 mi Calm Calm - N/A   Overcast
8:54 PM 66.9 °F 66.0 °F 97% 29.72 in 10.0 mi Calm Calm - 0.00 in Rain Light Rain
9:14 PM 66.2 °F 66.2 °F 100% 29.71 in 8.0 mi Calm Calm - 0.00 in   Overcast
9:41 PM 66.2 °F 66.2 °F 100% 29.72 in 9.0 mi Calm Calm - 0.00 in   Overcast
9:54 PM 66.0 °F 66.0 °F 100% 29.72 in 8.0 mi Calm Calm - 0.00 in   Overcast
10:19 PM 66.2 °F 64.4 °F 94% 29.73 in 9.0 mi Calm Calm - N/A   Overcast
10:36 PM 66.2 °F 64.4 °F 94% 29.72 in 9.0 mi Calm Calm - N/A   Overcast
10:54 PM 66.0 °F 64.9 °F 96% 29.72 in 9.0 mi Calm Calm - N/A   Overcast
11:03 PM 64.4 °F 64.4 °F 100% 29.72 in 10.0 mi Calm Calm - N/A   Overcast
11:34 PM 64.4 °F 64.4 °F 100% 29.72 in 9.0 mi Calm Calm - N/A   Overcast
11:54 PM 64.9 °F 64.0 °F 97% 29.70 in 10.0 mi Calm Calm - N/A   Overcast